QPF
0.00 0.00 0.00 0.00 0.00 0.00 0.00 0.00 0.00 0.00 0.00 0.00 0.00 0.00 0.00 0.00 0.00 0.00 0.00 0.00 0.00 0.00 0.00 0.00 0.00 0.01 0.01 0.01 0.01 0.02 0.05 0.06 0.05 0.04 0.05 0.07 0.07 0.07 0.08 0.10 0.12 0.11 0.11 0.14
0.00 0.00 0.00 0.00 0.00 0.00 0.00 0.00 0.00 0.00 0.00 0.00 0.00 0.00 0.00 0.00 0.00 0.00 0.00 0.00 0.00 0.00 0.00 0.00 0.01 0.01 0.01 0.01 0.00 0.01 0.02 0.04 0.04 0.05 0.08 0.11 0.11 0.07 0.05 0.06 0.09 0.11 0.10 0.11
0.00 0.00 0.00 0.00 0.00 0.00 0.00 0.00 0.00 0.00 0.00 0.00 0.00 0.00 0.00 0.00 0.00 0.00 0.00 0.00 0.00 0.00 0.00 0.00 0.01 0.01 0.00 0.00 0.00 0.00 0.01 0.03 0.03 0.04 0.06 0.09 0.11 0.08 0.06 0.06 0.07 0.08 0.09 0.10
0.00 0.00 0.00 0.00 0.00 0.00 0.00 0.00 0.00 0.00 0.00 0.01 0.00 0.01 0.00 0.00 0.00 0.00 0.00 0.00 0.01 0.00 0.00 0.00 0.00 0.01 0.01 0.01 0.01 0.01 0.01 0.02 0.02 0.03 0.03 0.03 0.04 0.05 0.05 0.05 0.05 0.06 0.06 0.07
0.00 0.00 0.00 0.00 0.00 0.00 0.00 0.00 0.00 0.00 0.00 0.00 0.00 0.00 0.00 0.00 0.00 0.00 0.00 0.00 0.00 0.00 0.00 0.00 0.00 0.01 0.02 0.01 0.01 0.01 0.01 0.02 0.02 0.03 0.03 0.02 0.02 0.03 0.02 0.03 0.03 0.04 0.04 0.03
0.00 0.00 0.00 0.00 0.00 0.00 0.00 0.00 0.00 0.00 0.00 0.00 0.00 0.00 0.00 0.00 0.00 0.00 0.00 0.00 0.00 0.00 0.00 0.00 0.01 0.01 0.02 0.01 0.01 0.01 0.01 0.02 0.02 0.03 0.03 0.03 0.02 0.03 0.03 0.03 0.03 0.03 0.03 0.03
0.00 0.00 0.00 0.00 0.00 0.00 0.00 0.00 0.00 0.01 0.01 0.00 0.00 0.00 0.00 0.00 0.00 0.00 0.00 0.00 0.00 0.00 0.00 0.00 0.01 0.01 0.01 0.01 0.01 0.01 0.01 0.02 0.02 0.03 0.04 0.03 0.03 0.02 0.02 0.03 0.03 0.03 0.02 0.02
0.00 0.00 0.00 0.00 0.00 0.00 0.00 0.00 0.00 0.00 0.00 0.00 0.00 0.00 0.00 0.00 0.00 0.00 0.01 0.00 0.00 0.00 0.01 0.01 0.02 0.02 0.01 0.01 0.01 0.01 0.01 0.02 0.02 0.03 0.03 0.03 0.03 0.01 0.01 0.02 0.02 0.01 0.01 0.01
0.00 0.00 0.00 0.00 0.00 0.00 0.00 0.00 0.00 0.00 0.00 0.01 0.00 0.00 0.00 0.00 0.00 0.00 0.00 0.00 0.00 0.00 0.00 0.01 0.01 0.01 0.01 0.02 0.02 0.01 0.01 0.02 0.02 0.02 0.03 0.03 0.02 0.01 0.02 0.02 0.02 0.01 0.01 0.01
0.00 0.00 0.00 0.00 0.00 0.00 0.00 0.00 0.00 0.00 0.00 0.01 0.00 0.00 0.00 0.00 0.00 0.00 0.00 0.00 0.00 0.01 0.00 0.00 0.00 0.00 0.01 0.02 0.03 0.01 0.01 0.02 0.02 0.03 0.03 0.02 0.01 0.01 0.01 0.01 0.01 0.01 0.01 0.02
0.00 0.00 0.00 0.00 0.00 0.00 0.00 0.00 0.00 0.00 0.00 0.01 0.01 0.00 0.00 0.00 0.00 0.00 0.00 0.00 0.01 0.01 0.01 0.00 0.00 0.00 0.01 0.02 0.03 0.02 0.02 0.03 0.04 0.03 0.03 0.02 0.01 0.01 0.01 0.01 0.01 0.02 0.03 0.04
0.00 0.00 0.00 0.00 0.00 0.00 0.00 0.00 0.00 0.00 0.00 0.00 0.01 0.01 0.00 0.00 0.00 0.01 0.00 0.00 0.00 0.00 0.00 0.00 0.00 0.01 0.01 0.01 0.02 0.02 0.02 0.04 0.05 0.04 0.03 0.02 0.01 0.01 0.02 0.02 0.02 0.03 0.04 0.05
0.00 0.00 0.00 0.00 0.00 0.00 0.00 0.00 0.00 0.00 0.00 0.00 0.00 0.00 0.00 0.01 0.02 0.03 0.01 0.00 0.00 0.00 0.00 0.00 0.00 0.01 0.01 0.02 0.02 0.02 0.02 0.03 0.03 0.03 0.02 0.02 0.01 0.01 0.02 0.03 0.04 0.05 0.05 0.05
0.00 0.00 0.00 0.00 0.00 0.00 0.00 0.00 0.00 0.00 0.00 0.00 0.00 0.00 0.00 0.01 0.01 0.02 0.02 0.01 0.00 0.00 0.00 0.00 0.00 0.01 0.01 0.02 0.03 0.02 0.02 0.03 0.03 0.02 0.02 0.02 0.02 0.01 0.02 0.03 0.04 0.02 0.02 0.02
0.00 0.00 0.00 0.00 0.00 0.00 0.00 0.00 0.00 0.00 0.00 0.00 0.00 0.00 0.00 0.00 0.01 0.01 0.00 0.00 0.00 0.00 0.01 0.01 0.01 0.01 0.01 0.02 0.03 0.02 0.02 0.02 0.02 0.02 0.02 0.03 0.04 0.03 0.02 0.02 0.01 0.01 0.01 0.01
0.00 0.00 0.00 0.00 0.00 0.00 0.00 0.00 0.00 0.00 0.00 0.00 0.00 0.00 0.00 0.00 0.00 0.00 0.00 0.01 0.01 0.01 0.01 0.02 0.02 0.01 0.01 0.01 0.03 0.03 0.02 0.02 0.03 0.04 0.04 0.04 0.04 0.04 0.03 0.02 0.02 0.02 0.02 0.03
0.00 0.00 0.00 0.00 0.00 0.00 0.00 0.00 0.00 0.00 0.00 0.00 0.00 0.00 0.00 0.00 0.00 0.01 0.01 0.01 0.01 0.02 0.02 0.03 0.03 0.02 0.01 0.01 0.02 0.02 0.02 0.02 0.03 0.05 0.05 0.03 0.03 0.02 0.02 0.02 0.02 0.02 0.03 0.04
0.01 0.00 0.00 0.00 0.00 0.01 0.00 0.00 0.00 0.00 0.00 0.00 0.00 0.00 0.00 0.00 0.00 0.01 0.01 0.01 0.01 0.02 0.04 0.04 0.02 0.01 0.02 0.02 0.02 0.02 0.02 0.02 0.02 0.03 0.03 0.02 0.02 0.02 0.02 0.02 0.02 0.02 0.04 0.04
0.00 0.00 0.00 0.00 0.00 0.01 0.00 0.00 0.01 0.01 0.01 0.00 0.00 0.00 0.00 0.00 0.01 0.01 0.01 0.01 0.01 0.02 0.03 0.03 0.02 0.02 0.03 0.05 0.04 0.03 0.02 0.02 0.02 0.02 0.02 0.02 0.01 0.01 0.02 0.04 0.05 0.05 0.05 0.05
0.00 0.00 0.00 0.00 0.00 0.00 0.00 0.00 0.00 0.01 0.01 0.00 0.01 0.00 0.00 0.01 0.01 0.02 0.02 0.03 0.03 0.03 0.03 0.03 0.04 0.04 0.04 0.05 0.04 0.02 0.02 0.01 0.01 0.02 0.02 0.02 0.02 0.01 0.02 0.03 0.05 0.05 0.05 0.05
0.00 0.00 0.00 0.00 0.00 0.00 0.00 0.00 0.00 0.01 0.01 0.01 0.01 0.00 0.00 0.01 0.01 0.02 0.03 0.03 0.03 0.04 0.05 0.05 0.04 0.03 0.03 0.02 0.02 0.02 0.02 0.01 0.01 0.01 0.02 0.02 0.02 0.02 0.03 0.04 0.04 0.05 0.05 0.04
0.01 0.01 0.01 0.00 0.01 0.01 0.00 0.00 0.00 0.01 0.01 0.01 0.01 0.01 0.01 0.01 0.01 0.01 0.02 0.03 0.03 0.02 0.03 0.03 0.04 0.03 0.03 0.03 0.02 0.01 0.01 0.01 0.01 0.01 0.01 0.02 0.02 0.02 0.03 0.04 0.06 0.09 0.10 0.08
0.01 0.01 0.01 0.01 0.01 0.01 0.00 0.01 0.01 0.01 0.02 0.02 0.01 0.01 0.01 0.01 0.01 0.01 0.02 0.02 0.02 0.01 0.01 0.01 0.02 0.03 0.02 0.02 0.01 0.01 0.01 0.01 0.01 0.01 0.01 0.01 0.02 0.03 0.04 0.06 0.07 0.09 0.11 0.11
0.02 0.01 0.01 0.01 0.01 0.01 0.01 0.02 0.02 0.02 0.03 0.03 0.02 0.01 0.01 0.01 0.02 0.02 0.01 0.02 0.01 0.01 0.01 0.01 0.01 0.01 0.01 0.01 0.00 0.00 0.01 0.01 0.01 0.01 0.01 0.02 0.02 0.02 0.03 0.06 0.07 0.07 0.06 0.06
0.05 0.03 0.02 0.02 0.02 0.04 0.05 0.03 0.02 0.03 0.04 0.02 0.02 0.02 0.02 0.02 0.03 0.03 0.02 0.02 0.02 0.01 0.01 0.01 0.01 0.01 0.01 0.01 0.01 0.01 0.01 0.02 0.02 0.01 0.02 0.02 0.02 0.02 0.03 0.03 0.03 0.03 0.03 0.03
0.08 0.06 0.04 0.04 0.07 0.09 0.07 0.04 0.03 0.03 0.02 0.01 0.01 0.01 0.02 0.02 0.02 0.03 0.03 0.03 0.02 0.02 0.01 0.02 0.02 0.02 0.02 0.02 0.02 0.01 0.01 0.02 0.01 0.02 0.02 0.02 0.02 0.02 0.03 0.03 0.02 0.02 0.02 0.03
MSLP
1007.29 1007.79 1008.19 1008.51 1008.77 1008.98 1009.16 1009.28 1009.35 1009.32 1009.20 1008.96 1008.64 1008.27 1007.92 1007.65 1007.52 1007.55 1007.76 1008.12 1008.58 1009.08 1009.57 1010.00 1010.37 1010.67 1010.94 1011.20 1011.49 1011.81 1012.15 1012.49 1012.80 1013.05 1013.22 1013.30 1013.33 1013.34 1013.38 1013.48 1013.67 1013.93 1014.26 1014.60
1007.81 1008.22 1008.53 1008.76 1008.93 1009.10 1009.25 1009.38 1009.47 1009.48 1009.36 1009.12 1008.75 1008.31 1007.85 1007.46 1007.20 1007.13 1007.26 1007.56 1008.01 1008.52 1009.04 1009.52 1009.93 1010.28 1010.58 1010.86 1011.16 1011.49 1011.86 1012.23 1012.58 1012.88 1013.10 1013.24 1013.31 1013.36 1013.42 1013.54 1013.73 1014.01 1014.35 1014.71
1008.18 1008.50 1008.71 1008.85 1008.97 1009.10 1009.26 1009.43 1009.57 1009.62 1009.54 1009.29 1008.89 1008.36 1007.80 1007.27 1006.87 1006.67 1006.68 1006.91 1007.30 1007.81 1008.35 1008.86 1009.31 1009.70 1010.04 1010.36 1010.69 1011.06 1011.46 1011.88 1012.29 1012.66 1012.95 1013.16 1013.29 1013.39 1013.48 1013.61 1013.81 1014.08 1014.41 1014.77
1008.35 1008.57 1008.68 1008.75 1008.83 1008.96 1009.15 1009.38 1009.60 1009.72 1009.69 1009.46 1009.02 1008.43 1007.74 1007.07 1006.52 1006.16 1006.04 1006.16 1006.48 1006.95 1007.49 1008.02 1008.51 1008.95 1009.33 1009.70 1010.08 1010.49 1010.95 1011.43 1011.92 1012.36 1012.74 1013.02 1013.23 1013.38 1013.50 1013.65 1013.85 1014.11 1014.43 1014.77
1008.29 1008.40 1008.43 1008.44 1008.50 1008.65 1008.91 1009.23 1009.55 1009.77 1009.80 1009.60 1009.15 1008.49 1007.69 1006.88 1006.16 1005.64 1005.36 1005.36 1005.60 1006.01 1006.53 1007.07 1007.60 1008.07 1008.50 1008.92 1009.35 1009.81 1010.33 1010.88 1011.44 1011.96 1012.42 1012.79 1013.08 1013.28 1013.45 1013.62 1013.81 1014.07 1014.37 1014.70
1008.05 1008.04 1007.99 1007.96 1008.02 1008.22 1008.56 1009.00 1009.43 1009.75 1009.86 1009.70 1009.25 1008.54 1007.64 1006.70 1005.83 1005.14 1004.72 1004.59 1004.72 1005.07 1005.56 1006.11 1006.65 1007.17 1007.65 1008.11 1008.58 1009.10 1009.66 1010.26 1010.88 1011.48 1012.01 1012.46 1012.81 1013.08 1013.29 1013.48 1013.69 1013.94 1014.24 1014.56
1007.71 1007.59 1007.47 1007.41 1007.49 1007.74 1008.17 1008.71 1009.25 1009.68 1009.87 1009.76 1009.31 1008.56 1007.60 1006.54 1005.54 1004.72 1004.16 1003.91 1003.96 1004.24 1004.70 1005.24 1005.80 1006.35 1006.87 1007.37 1007.88 1008.42 1009.02 1009.66 1010.31 1010.95 1011.54 1012.04 1012.45 1012.77 1013.03 1013.25 1013.48 1013.75 1014.05 1014.38
1007.38 1007.18 1007.00 1006.91 1007.01 1007.32 1007.81 1008.43 1009.06 1009.57 1009.83 1009.76 1009.32 1008.56 1007.55 1006.42 1005.33 1004.41 1003.75 1003.41 1003.38 1003.61 1004.04 1004.58 1005.15 1005.72 1006.27 1006.79 1007.32 1007.88 1008.49 1009.13 1009.80 1010.46 1011.07 1011.61 1012.06 1012.42 1012.72 1012.98 1013.24 1013.53 1013.85 1014.20
1007.19 1006.92 1006.69 1006.60 1006.70 1007.03 1007.56 1008.22 1008.90 1009.44 1009.74 1009.69 1009.27 1008.50 1007.47 1006.32 1005.18 1004.21 1003.50 1003.10 1003.02 1003.23 1003.64 1004.17 1004.76 1005.34 1005.91 1006.45 1006.99 1007.55 1008.14 1008.77 1009.43 1010.08 1010.69 1011.24 1011.71 1012.10 1012.44 1012.73 1013.03 1013.35 1013.70 1014.08
1007.22 1006.91 1006.66 1006.54 1006.63 1006.95 1007.47 1008.11 1008.77 1009.30 1009.58 1009.53 1009.11 1008.36 1007.35 1006.20 1005.08 1004.11 1003.40 1002.99 1002.90 1003.09 1003.50 1004.04 1004.63 1005.23 1005.81 1006.36 1006.90 1007.45 1008.02 1008.62 1009.24 1009.86 1010.46 1011.00 1011.48 1011.89 1012.25 1012.58 1012.91 1013.26 1013.64 1014.05
1007.50 1007.18 1006.91 1006.77 1006.82 1007.09 1007.53 1008.10 1008.66 1009.12 1009.34 1009.25 1008.83 1008.10 1007.14 1006.05 1005.00 1004.09 1003.42 1003.05 1002.99 1003.19 1003.61 1004.15 1004.76 1005.36 1005.95 1006.50 1007.04 1007.57 1008.12 1008.68 1009.27 1009.85 1010.42 1010.94 1011.41 1011.83 1012.20 1012.56 1012.91 1013.29 1013.70 1014.14
1007.97 1007.66 1007.40 1007.23 1007.22 1007.39 1007.72 1008.14 1008.56 1008.88 1009.00 1008.85 1008.42 1007.72 1006.83 1005.85 1004.90 1004.10 1003.53 1003.24 1003.22 1003.46 1003.88 1004.44 1005.04 1005.65 1006.24 1006.80 1007.33 1007.85 1008.37 1008.92 1009.47 1010.02 1010.55 1011.05 1011.50 1011.92 1012.30 1012.67 1013.05 1013.44 1013.87 1014.32
1008.54 1008.27 1008.01 1007.82 1007.73 1007.78 1007.95 1008.18 1008.42 1008.56 1008.56 1008.33 1007.88 1007.23 1006.44 1005.59 1004.79 1004.14 1003.69 1003.50 1003.55 1003.82 1004.27 1004.82 1005.42 1006.02 1006.61 1007.16 1007.69 1008.21 1008.72 1009.25 1009.77 1010.30 1010.80 1011.28 1011.72 1012.13 1012.51 1012.89 1013.27 1013.67 1014.10 1014.55
1009.10 1008.88 1008.63 1008.41 1008.25 1008.16 1008.15 1008.19 1008.22 1008.18 1008.04 1007.74 1007.28 1006.68 1006.01 1005.32 1004.69 1004.21 1003.91 1003.82 1003.95 1004.25 1004.70 1005.24 1005.82 1006.40 1006.97 1007.52 1008.05 1008.57 1009.08 1009.60 1010.12 1010.63 1011.12 1011.57 1012.00 1012.39 1012.77 1013.14 1013.52 1013.92 1014.33 1014.77
1009.55 1009.38 1009.16 1008.91 1008.68 1008.47 1008.30 1008.14 1007.97 1007.77 1007.49 1007.13 1006.68 1006.16 1005.61 1005.09 1004.65 1004.34 1004.19 1004.20 1004.39 1004.72 1005.16 1005.66 1006.20 1006.75 1007.29 1007.82 1008.35 1008.87 1009.40 1009.92 1010.44 1010.95 1011.42 1011.86 1012.27 1012.65 1013.01 1013.37 1013.73 1014.12 1014.52 1014.94
1009.85 1009.72 1009.52 1009.27 1008.99 1008.68 1008.37 1008.05 1007.72 1007.38 1007.00 1006.60 1006.18 1005.75 1005.34 1004.99 1004.72 1004.57 1004.55 1004.65 1004.88 1005.21 1005.61 1006.07 1006.55 1007.04 1007.54 1008.05 1008.57 1009.10 1009.64 1010.17 1010.70 1011.21 1011.68 1012.11 1012.50 1012.86 1013.20 1013.54 1013.88 1014.24 1014.63 1015.02
1009.99 1009.91 1009.74 1009.50 1009.18 1008.81 1008.40 1007.97 1007.53 1007.09 1006.65 1006.24 1005.86 1005.52 1005.24 1005.04 1004.93 1004.92 1005.00 1005.17 1005.41 1005.71 1006.06 1006.44 1006.84 1007.27 1007.72 1008.20 1008.71 1009.25 1009.80 1010.35 1010.89 1011.41 1011.88 1012.30 1012.67 1013.01 1013.33 1013.64 1013.96 1014.30 1014.67 1015.04
1010.03 1009.99 1009.85 1009.63 1009.31 1008.91 1008.45 1007.96 1007.45 1006.96 1006.51 1006.11 1005.78 1005.53 1005.36 1005.29 1005.29 1005.38 1005.52 1005.71 1005.94 1006.19 1006.47 1006.77 1007.09 1007.45 1007.85 1008.30 1008.80 1009.34 1009.91 1010.48 1011.04 1011.56 1012.03 1012.44 1012.80 1013.12 1013.41 1013.70 1014.00 1014.32 1014.67 1015.03
1010.06 1010.04 1009.93 1009.73 1009.42 1009.03 1008.56 1008.04 1007.52 1007.02 1006.57 1006.20 1005.92 1005.74 1005.66 1005.66 1005.75 1005.88 1006.05 1006.23 1006.42 1006.62 1006.81 1007.03 1007.28 1007.57 1007.93 1008.36 1008.86 1009.41 1010.00 1010.60 1011.17 1011.70 1012.18 1012.58 1012.93 1013.22 1013.49 1013.75 1014.03 1014.34 1014.68 1015.04
1010.14 1010.12 1010.04 1009.85 1009.57 1009.19 1008.73 1008.23 1007.71 1007.22 1006.79 1006.45 1006.20 1006.07 1006.03 1006.08 1006.20 1006.34 1006.50 1006.66 1006.80 1006.92 1007.05 1007.20 1007.39 1007.65 1007.98 1008.40 1008.91 1009.48 1010.09 1010.71 1011.30 1011.85 1012.32 1012.73 1013.06 1013.34 1013.59 1013.84 1014.10 1014.40 1014.73 1015.11
1010.30 1010.27 1010.18 1010.01 1009.74 1009.38 1008.95 1008.46 1007.96 1007.49 1007.08 1006.76 1006.53 1006.41 1006.39 1006.44 1006.54 1006.67 1006.80 1006.91 1007.00 1007.08 1007.16 1007.26 1007.43 1007.66 1008.00 1008.43 1008.95 1009.54 1010.18 1010.82 1011.44 1012.00 1012.48 1012.88 1013.20 1013.47 1013.71 1013.94 1014.20 1014.50 1014.84 1015.23
1010.52 1010.45 1010.34 1010.16 1009.89 1009.54 1009.13 1008.66 1008.19 1007.73 1007.33 1007.01 1006.78 1006.64 1006.60 1006.63 1006.70 1006.79 1006.88 1006.95 1007.01 1007.06 1007.12 1007.22 1007.38 1007.63 1007.98 1008.44 1008.99 1009.61 1010.27 1010.93 1011.56 1012.13 1012.61 1013.01 1013.33 1013.60 1013.83 1014.06 1014.32 1014.62 1014.98 1015.39
1010.73 1010.61 1010.45 1010.24 1009.96 1009.61 1009.20 1008.75 1008.28 1007.84 1007.43 1007.10 1006.85 1006.69 1006.61 1006.59 1006.62 1006.68 1006.74 1006.79 1006.84 1006.89 1006.97 1007.09 1007.28 1007.56 1007.95 1008.44 1009.01 1009.66 1010.33 1011.00 1011.64 1012.20 1012.69 1013.08 1013.40 1013.67 1013.90 1014.14 1014.41 1014.73 1015.10 1015.54
1010.86 1010.67 1010.46 1010.20 1009.89 1009.53 1009.12 1008.67 1008.21 1007.76 1007.34 1006.99 1006.71 1006.52 1006.40 1006.34 1006.34 1006.37 1006.43 1006.49 1006.56 1006.64 1006.76 1006.94 1007.18 1007.51 1007.93 1008.45 1009.04 1009.69 1010.36 1011.02 1011.64 1012.20 1012.67 1013.06 1013.38 1013.65 1013.89 1014.15 1014.43 1014.77 1015.17 1015.63
1010.85 1010.59 1010.32 1010.01 1009.67 1009.29 1008.86 1008.41 1007.94 1007.49 1007.06 1006.69 1006.39 1006.16 1006.01 1005.94 1005.93 1005.96 1006.03 1006.13 1006.25 1006.40 1006.59 1006.83 1007.13 1007.50 1007.96 1008.48 1009.07 1009.70 1010.34 1010.97 1011.56 1012.08 1012.54 1012.92 1013.24 1013.52 1013.78 1014.05 1014.35 1014.71 1015.14 1015.62
1010.70 1010.38 1010.05 1009.70 1009.33 1008.92 1008.49 1008.03 1007.56 1007.10 1006.67 1006.28 1005.96 1005.72 1005.56 1005.48 1005.48 1005.55 1005.66 1005.82 1006.02 1006.25 1006.51 1006.82 1007.18 1007.59 1008.05 1008.57 1009.12 1009.70 1010.29 1010.86 1011.40 1011.88 1012.31 1012.68 1013.00 1013.28 1013.56 1013.85 1014.18 1014.56 1015.00 1015.50
Thickness
5829 5823 5817 5824 5829 5828 5825 5820 5817 5823 5832 5825 5819 5819 5822 5824 5822 5817 5814 5811 5807 5803 5803 5800 5797 5794 5790 5785 5781 5778 5775 5774 5771 5770 5769 5766 5765 5765 5766 5765 5764 5763 5763 5762
5816 5814 5827 5832 5830 5825 5822 5816 5816 5823 5828 5822 5817 5818 5824 5823 5820 5820 5817 5813 5810 5807 5803 5799 5797 5795 5791 5786 5783 5779 5776 5775 5773 5772 5771 5769 5768 5768 5767 5766 5764 5763 5763 5762
5809 5820 5830 5824 5820 5816 5817 5816 5816 5814 5821 5824 5817 5813 5817 5821 5822 5821 5820 5819 5816 5811 5805 5801 5798 5796 5793 5789 5786 5783 5779 5777 5775 5773 5772 5770 5767 5766 5766 5764 5764 5763 5762 5762
5813 5825 5821 5817 5816 5817 5810 5824 5821 5816 5811 5809 5813 5798 5813 5818 5816 5817 5818 5819 5817 5815 5810 5806 5802 5798 5796 5793 5791 5786 5782 5778 5776 5774 5772 5770 5766 5764 5764 5764 5764 5763 5762 5761
5809 5816 5813 5810 5816 5819 5817 5825 5820 5817 5812 5808 5811 5804 5810 5818 5810 5813 5817 5819 5820 5817 5813 5808 5805 5801 5799 5797 5794 5789 5783 5779 5777 5775 5773 5770 5768 5767 5767 5766 5763 5762 5762 5761
5814 5822 5820 5818 5823 5823 5821 5817 5814 5815 5813 5792 5802 5799 5798 5813 5810 5814 5817 5819 5819 5817 5814 5809 5807 5804 5800 5798 5794 5790 5783 5779 5777 5775 5773 5770 5768 5767 5765 5764 5763 5762 5763 5762
5799 5809 5818 5822 5812 5814 5814 5803 5791 5787 5789 5790 5806 5798 5799 5814 5819 5818 5817 5817 5819 5818 5813 5808 5805 5802 5799 5796 5794 5791 5784 5779 5777 5775 5772 5770 5769 5767 5765 5764 5762 5762 5763 5762
5786 5790 5807 5814 5810 5806 5808 5806 5787 5776 5782 5793 5799 5794 5806 5818 5821 5821 5820 5819 5818 5816 5813 5809 5805 5802 5799 5796 5793 5790 5785 5780 5778 5775 5773 5771 5769 5768 5767 5765 5764 5763 5763 5763
5791 5789 5806 5810 5814 5811 5802 5804 5814 5800 5792 5786 5794 5801 5807 5815 5813 5813 5814 5814 5813 5813 5811 5809 5806 5803 5799 5795 5792 5790 5785 5781 5779 5776 5773 5771 5769 5767 5767 5765 5764 5764 5762 5762
5796 5782 5795 5803 5807 5806 5809 5808 5802 5792 5771 5769 5784 5790 5796 5799 5801 5806 5807 5808 5809 5810 5809 5807 5804 5802 5799 5796 5792 5789 5785 5780 5778 5776 5774 5772 5769 5767 5766 5764 5763 5761 5761 5760
5795 5780 5782 5790 5788 5791 5793 5794 5793 5793 5789 5773 5771 5786 5807 5802 5802 5802 5804 5805 5804 5804 5804 5803 5801 5799 5797 5794 5790 5785 5782 5779 5776 5774 5772 5770 5768 5767 5765 5763 5762 5760 5758 5757
5786 5783 5774 5781 5793 5798 5796 5793 5789 5776 5774 5780 5778 5783 5806 5804 5805 5803 5801 5801 5801 5800 5800 5799 5797 5794 5792 5789 5786 5783 5780 5777 5775 5772 5770 5767 5766 5764 5763 5762 5761 5759 5757 5756
5778 5771 5756 5762 5774 5782 5782 5786 5790 5792 5786 5778 5774 5779 5799 5798 5798 5798 5796 5795 5794 5794 5794 5793 5791 5788 5785 5783 5780 5778 5777 5775 5773 5770 5767 5764 5763 5762 5761 5760 5759 5757 5755 5754
5775 5768 5761 5757 5767 5775 5770 5773 5778 5780 5775 5775 5779 5779 5785 5786 5786 5787 5787 5788 5788 5786 5786 5785 5784 5782 5780 5778 5776 5773 5772 5771 5770 5767 5764 5761 5760 5759 5758 5756 5755 5754 5753 5751
5769 5759 5761 5765 5770 5769 5765 5766 5769 5769 5774 5774 5778 5778 5778 5780 5780 5780 5781 5781 5779 5778 5778 5777 5776 5776 5775 5773 5771 5770 5768 5767 5765 5762 5759 5757 5756 5755 5753 5752 5751 5750 5749 5748
5760 5752 5753 5752 5760 5760 5757 5762 5764 5764 5769 5771 5772 5771 5781 5779 5777 5773 5774 5773 5771 5771 5770 5770 5770 5770 5770 5769 5767 5765 5764 5762 5760 5757 5755 5754 5752 5750 5748 5747 5746 5745 5744 5743
5751 5745 5741 5743 5751 5748 5745 5759 5762 5763 5768 5769 5765 5771 5772 5768 5765 5764 5765 5765 5764 5764 5764 5763 5763 5764 5764 5764 5763 5760 5759 5757 5754 5752 5751 5750 5747 5745 5744 5743 5741 5740 5738 5737
5740 5737 5739 5740 5734 5721 5753 5767 5766 5761 5762 5767 5767 5767 5765 5762 5761 5762 5762 5759 5758 5758 5758 5757 5758 5759 5760 5760 5758 5755 5754 5751 5749 5747 5745 5744 5743 5740 5738 5737 5734 5733 5732 5731
5739 5732 5732 5732 5728 5734 5745 5755 5756 5751 5752 5760 5759 5757 5758 5758 5755 5753 5755 5753 5752 5752 5752 5751 5753 5754 5753 5753 5751 5748 5746 5744 5742 5740 5739 5739 5737 5735 5732 5729 5727 5726 5724 5723
5731 5729 5726 5725 5718 5719 5742 5753 5758 5749 5739 5751 5752 5749 5749 5749 5744 5743 5746 5746 5745 5745 5746 5745 5746 5746 5745 5744 5743 5740 5738 5736 5734 5734 5732 5731 5730 5728 5725 5722 5720 5719 5717 5716
5716 5715 5716 5717 5717 5732 5742 5747 5746 5727 5734 5745 5745 5743 5742 5741 5741 5740 5740 5738 5738 5738 5738 5738 5739 5737 5736 5736 5734 5731 5730 5728 5728 5728 5726 5724 5722 5721 5718 5715 5713 5711 5709 5707
5714 5714 5711 5714 5711 5721 5736 5736 5731 5731 5737 5739 5738 5737 5734 5733 5733 5732 5731 5730 5730 5729 5730 5729 5729 5728 5728 5727 5725 5722 5721 5722 5721 5720 5719 5717 5715 5714 5712 5708 5704 5702 5700 5697
5712 5715 5720 5717 5718 5722 5730 5731 5730 5732 5729 5730 5729 5729 5727 5725 5724 5723 5723 5722 5722 5722 5722 5722 5721 5719 5719 5718 5716 5713 5713 5714 5713 5712 5710 5709 5707 5705 5703 5700 5697 5695 5693 5691
5705 5707 5707 5706 5712 5715 5719 5722 5723 5724 5723 5724 5723 5722 5721 5718 5717 5716 5715 5715 5714 5714 5715 5714 5713 5711 5710 5710 5709 5708 5707 5706 5705 5703 5701 5700 5699 5697 5694 5692 5691 5688 5685 5682
5700 5699 5700 5699 5703 5706 5710 5712 5713 5714 5715 5715 5714 5714 5714 5712 5710 5709 5707 5707 5706 5706 5706 5706 5704 5703 5702 5702 5701 5701 5700 5698 5696 5695 5694 5693 5692 5689 5685 5683 5681 5679 5675 5672
5698 5696 5694 5698 5701 5700 5700 5705 5706 5704 5704 5705 5705 5705 5706 5705 5704 5703 5701 5701 5699 5698 5698 5697 5697 5696 5695 5695 5693 5693 5692 5691 5689 5687 5686 5686 5685 5682 5680 5676 5672 5666 5664 5659